Location: Macksville High School
(37.9611°N, 99.9654°W)
Time: 01:46:18
(UTC+00:00)

SKYMED 3 - Pass Details

Date: 17 January 2021
Orbit: 621 x 623 km, 97.9° (Epoch: 07 March)

Event Time Altitude Azimuth Distance (km) Brightness Sun altitude
Rises 12:08:25 0° 174° (S) 2,887 8.2 -20.5°
Reaches altitude 10° 12:10:36 10° 178° (S) 1,985 7.3 -20.1°
Maximum altitude 12:14:53 62° 259° (W) 705 4.5 -19.2°
Enters shadow 12:17:04 28° 331° (NNW) 1,186 5.6 -18.8°
